FDX1267 LROP-UGSB

Flight info

Callsign FDX1267
Flight time N/A
Altitude 39000
Route IDARU DCT DINRO N743 UDROS UM859 KARDE UN644 ROLIN
Aircraft B752/M-SDE3FGHIM3RWXY/LB1

Departure

Time 2026-05-08 03:59
Airport Bucharest Henri Coandă International Airport (LROP)

Arrival

Time N/A
Airport Alexander Kartveli Batumi International Airport (UGSB)
Time Latitude Longitude Altitude Speed Heading
2026-05-08 03:25 44.56886 26.09086 184 ft 0 kts 174°
2026-05-08 03:46 44.56887 26.09085 184 ft 0 kts 174°
2026-05-08 03:48 44.56900 26.09083 184 ft 2 kts 173°
2026-05-08 03:48 44.56915 26.09081 184 ft 2 kts 183°
2026-05-08 03:48 44.56930 26.09085 184 ft 2 kts 198°
2026-05-08 03:49 44.56944 26.09094 184 ft 2 kts 213°
2026-05-08 03:49 44.56956 26.09108 184 ft 2 kts 227°
2026-05-08 03:49 44.56965 26.09124 184 ft 2 kts 241°
2026-05-08 03:49 44.56971 26.09144 184 ft 2 kts 256°
2026-05-08 03:50 44.56972 26.09153 184 ft 1 kts 262°
2026-05-08 03:50 44.56973 26.09162 184 ft 0 kts 264°
2026-05-08 03:52 44.56973 26.09161 184 ft 0 kts 263°
2026-05-08 03:53 44.56966 26.09117 184 ft 9 kts 253°
2026-05-08 03:53 44.56953 26.09019 184 ft 10 kts 263°
2026-05-08 03:53 44.56946 26.08930 184 ft 9 kts 264°
2026-05-08 03:53 44.56939 26.08842 184 ft 11 kts 264°
2026-05-08 03:54 44.56929 26.08720 184 ft 9 kts 262°
2026-05-08 03:54 44.56921 26.08635 184 ft 8 kts 263°
2026-05-08 03:54 44.56908 26.08552 184 ft 10 kts 252°
2026-05-08 03:54 44.56893 26.08459 184 ft 11 kts 256°
2026-05-08 03:55 44.56853 26.08325 184 ft 16 kts 244°
2026-05-08 03:55 44.56799 26.08182 184 ft 14 kts 243°
2026-05-08 03:55 44.56766 26.08057 184 ft 12 kts 255°
2026-05-08 03:55 44.56744 26.07945 184 ft 11 kts 255°
2026-05-08 03:56 44.56725 26.07849 184 ft 9 kts 254°
2026-05-08 03:56 44.56710 26.07772 184 ft 7 kts 254°
2026-05-08 03:56 44.56693 26.07709 184 ft 6 kts 243°
2026-05-08 03:56 44.56663 26.07671 184 ft 5 kts 199°
2026-05-08 03:57 44.56623 26.07667 184 ft 5 kts 174°
2026-05-08 03:57 44.56573 26.07674 184 ft 9 kts 174°
2026-05-08 03:57 44.56511 26.07683 184 ft 8 kts 171°
2026-05-08 03:57 44.56473 26.07724 184 ft 6 kts 101°
2026-05-08 03:58 44.56473 26.07783 184 ft 5 kts 84°
2026-05-08 03:58 44.56486 26.07961 185 ft 44 kts 84°
2026-05-08 03:58 44.56543 26.08705 185 ft 106 kts 83°
2026-05-08 03:58 44.56650 26.10075 189 ft 163 kts 84°
2026-05-08 03:59 44.56784 26.11712 796 ft 169 kts 85°
2026-05-08 03:59 44.56842 26.13398 1497 ft 169 kts 88°
2026-05-08 03:59 44.56992 26.15058 1685 ft 182 kts 79°
2026-05-08 03:59 44.57198 26.16858 1725 ft 203 kts 82°
2026-05-08 04:00 44.57383 26.18974 1974 ft 213 kts 83°
2026-05-08 04:00 44.57552 26.21034 2384 ft 216 kts 83°
2026-05-08 04:00 44.57745 26.23215 2846 ft 216 kts 82°
2026-05-08 04:00 44.57940 26.25395 3316 ft 219 kts 83°
2026-05-08 04:01 44.58131 26.27558 3789 ft 220 kts 83°
2026-05-08 04:01 44.58320 26.29691 4255 ft 220 kts 82°
2026-05-08 04:01 44.58531 26.31905 4707 ft 222 kts 83°
2026-05-08 04:01 44.58726 26.34192 5172 ft 224 kts 83°
2026-05-08 04:02 44.58912 26.36389 5617 ft 225 kts 83°
2026-05-08 04:02 44.59097 26.38556 6050 ft 227 kts 83°
2026-05-08 04:02 44.59289 26.40794 6489 ft 228 kts 83°
2026-05-08 04:02 44.59481 26.43029 6916 ft 230 kts 83°
2026-05-08 04:03 44.59673 26.45257 7349 ft 231 kts 83°
2026-05-08 04:03 44.60059 26.49753 8185 ft 234 kts 83°
2026-05-08 04:03 44.60253 26.52014 8598 ft 235 kts 83°
2026-05-08 04:04 44.60382 26.54303 8999 ft 237 kts 95°
2026-05-08 04:04 44.59824 26.56463 9382 ft 238 kts 126°
2026-05-08 04:04 44.58691 26.58142 9776 ft 240 kts 133°
2026-05-08 04:04 44.57608 26.59923 10180 ft 241 kts 127°
2026-05-08 04:05 44.56612 26.61851 10575 ft 242 kts 124°
2026-05-08 04:05 44.55644 26.63885 10965 ft 244 kts 122°
2026-05-08 04:05 44.54705 26.65956 11347 ft 245 kts 122°
2026-05-08 04:05 44.53808 26.67985 11706 ft 247 kts 121°
2026-05-08 04:06 44.52898 26.70072 12061 ft 248 kts 121°
2026-05-08 04:06 44.52008 26.72129 12406 ft 249 kts 121°
2026-05-08 04:06 44.51104 26.74222 12739 ft 250 kts 121°
2026-05-08 04:06 44.50216 26.76285 13064 ft 251 kts 121°
2026-05-08 04:07 44.49287 26.78441 13386 ft 252 kts 121°
2026-05-08 04:07 44.48379 26.80549 13696 ft 253 kts 121°
2026-05-08 04:07 44.47487 26.82667 13992 ft 254 kts 120°
2026-05-08 04:07 44.46611 26.84812 14283 ft 255 kts 120°
2026-05-08 04:08 44.45715 26.86961 14568 ft 256 kts 121°
2026-05-08 04:08 44.44805 26.89111 14837 ft 257 kts 121°
2026-05-08 04:08 44.43877 26.91283 15113 ft 258 kts 121°
2026-05-08 04:08 44.42957 26.93421 15373 ft 259 kts 121°
2026-05-08 04:09 44.42028 26.95577 15621 ft 260 kts 121°
2026-05-08 04:09 44.41082 26.97765 15884 ft 261 kts 121°
2026-05-08 04:09 44.40159 26.99933 16139 ft 262 kts 120°
2026-05-08 04:09 44.39210 27.02144 16384 ft 263 kts 121°
2026-05-08 04:10 44.38259 27.04313 16629 ft 264 kts 121°
2026-05-08 04:10 44.37303 27.06500 16881 ft 265 kts 121°
2026-05-08 04:10 44.36338 27.08710 17116 ft 266 kts 121°
2026-05-08 04:10 44.35391 27.10884 17370 ft 267 kts 121°
2026-05-08 04:11 44.34425 27.13101 17608 ft 268 kts 121°
2026-05-08 04:11 44.33453 27.15331 17847 ft 269 kts 121°
2026-05-08 04:11 44.32486 27.17549 18085 ft 269 kts 121°
2026-05-08 04:11 44.31524 27.19754 18319 ft 270 kts 121°
2026-05-08 04:12 44.30538 27.22011 18555 ft 271 kts 121°
2026-05-08 04:12 44.29574 27.24218 18773 ft 272 kts 121°
2026-05-08 04:12 44.28596 27.26454 19007 ft 272 kts 121°
2026-05-08 04:12 44.27609 27.28709 19224 ft 273 kts 122°
2026-05-08 04:13 44.26618 27.30973 19447 ft 274 kts 122°
2026-05-08 04:13 44.25628 27.33232 19675 ft 274 kts 122°
2026-05-08 04:13 44.24638 27.35488 19883 ft 275 kts 122°
2026-05-08 04:13 44.23589 27.37843 20095 ft 276 kts 123°
2026-05-08 04:14 44.22539 27.40114 20295 ft 278 kts 123°
2026-05-08 04:14 44.21475 27.42456 20521 ft 278 kts 122°
2026-05-08 04:14 44.20453 27.44738 20709 ft 279 kts 122°
2026-05-08 04:14 44.19414 27.47074 20921 ft 280 kts 122°
2026-05-08 04:15 44.18418 27.49322 21111 ft 281 kts 122°
2026-05-08 04:15 44.17396 27.51633 21298 ft 282 kts 122°
2026-05-08 04:15 44.16378 27.53936 21506 ft 282 kts 122°
2026-05-08 04:15 44.15348 27.56265 21704 ft 283 kts 122°
2026-05-08 04:16 44.14330 27.58566 21862 ft 285 kts 122°
2026-05-08 04:16 44.13297 27.60900 22066 ft 285 kts 122°
2026-05-08 04:16 44.12262 27.63236 22237 ft 286 kts 122°
2026-05-08 04:16 44.11214 27.65601 22404 ft 289 kts 123°
2026-05-08 04:17 44.10244 27.67787 22727 ft 287 kts 123°
2026-05-08 04:17 44.09155 27.70240 22938 ft 290 kts 123°
2026-05-08 04:17 44.08069 27.72683 23206 ft 291 kts 123°
2026-05-08 04:17 44.07013 27.75058 23407 ft 294 kts 123°
2026-05-08 04:18 44.05912 27.77530 23493 ft 302 kts 123°
2026-05-08 04:18 44.04791 27.80044 23502 ft 316 kts 123°
2026-05-08 04:18 44.03619 27.82672 23519 ft 331 kts 123°
2026-05-08 04:18 44.02436 27.85320 23532 ft 346 kts 123°
2026-05-08 04:19 44.01223 27.88047 23545 ft 361 kts 123°
2026-05-08 04:19 43.99920 27.91058 23555 ft 376 kts 122°
2026-05-08 04:19 43.98555 27.94178 23562 ft 390 kts 123°
2026-05-08 04:19 43.97055 27.97469 23787 ft 399 kts 124°
2026-05-08 04:20 43.95561 28.00749 24230 ft 402 kts 123°
2026-05-08 04:20 43.94040 28.04105 24662 ft 405 kts 123°
2026-05-08 04:20 43.92547 28.07410 25041 ft 409 kts 123°
2026-05-08 04:20 43.91053 28.10719 25481 ft 410 kts 123°
2026-05-08 04:21 43.89548 28.14054 25861 ft 414 kts 123°
2026-05-08 04:21 43.88027 28.17422 26224 ft 417 kts 123°
2026-05-08 04:21 43.86491 28.20821 26613 ft 420 kts 123°
2026-05-08 04:21 43.84945 28.24239 27000 ft 422 kts 124°
2026-05-08 04:22 43.83378 28.27699 27366 ft 425 kts 124°
2026-05-08 04:22 43.81819 28.31136 27718 ft 428 kts 124°
2026-05-08 04:22 43.80218 28.34662 28031 ft 432 kts 124°
2026-05-08 04:22 43.78641 28.38133 28359 ft 435 kts 124°
2026-05-08 04:23 43.77056 28.41616 28707 ft 437 kts 124°
2026-05-08 04:23 43.75427 28.45191 29013 ft 441 kts 124°
2026-05-08 04:23 43.73797 28.48766 29327 ft 443 kts 124°
2026-05-08 04:23 43.72164 28.52342 29668 ft 446 kts 124°
2026-05-08 04:24 43.70503 28.55996 29951 ft 449 kts 123°
2026-05-08 04:24 43.68887 28.59623 30264 ft 452 kts 123°
2026-05-08 04:24 43.67250 28.63270 30545 ft 455 kts 124°
2026-05-08 04:24 43.65599 28.66914 30912 ft 454 kts 124°
2026-05-08 04:25 43.63917 28.70605 31165 ft 456 kts 124°
2026-05-08 04:25 43.62215 28.74288 31514 ft 455 kts 125°
2026-05-08 04:25 43.60506 28.77907 31816 ft 455 kts 126°
2026-05-08 04:25 43.58792 28.81554 32089 ft 456 kts 125°
2026-05-08 04:26 43.57094 28.85192 32323 ft 457 kts 125°
2026-05-08 04:26 43.55353 28.88927 32365 ft 463 kts 124°
2026-05-08 04:26 43.51829 28.96516 32712 ft 468 kts 124°
2026-05-08 04:27 43.50060 29.00324 32973 ft 468 kts 124°
2026-05-08 04:27 43.48289 29.04132 33209 ft 469 kts 124°
2026-05-08 04:27 43.46542 29.07887 33484 ft 468 kts 124°
2026-05-08 04:27 43.44760 29.11711 33822 ft 467 kts 124°
2026-05-08 04:28 43.42996 29.15490 34099 ft 467 kts 124°
2026-05-08 04:28 43.41222 29.19287 34384 ft 466 kts 124°
2026-05-08 04:28 43.39405 29.23170 34687 ft 466 kts 124°
2026-05-08 04:28 43.37577 29.27072 35004 ft 465 kts 124°
2026-05-08 04:29 43.35753 29.30962 35286 ft 464 kts 124°
2026-05-08 04:29 43.33920 29.34864 35566 ft 464 kts 124°
2026-05-08 04:29 43.32101 29.38731 35849 ft 463 kts 124°
2026-05-08 04:29 43.30281 29.42596 36062 ft 463 kts 124°
2026-05-08 04:30 43.28446 29.46489 36317 ft 462 kts 124°
2026-05-08 04:30 43.26618 29.50420 36503 ft 463 kts 124°
2026-05-08 04:30 43.24819 29.54330 36690 ft 463 kts 124°
2026-05-08 04:30 43.23016 29.58199 36873 ft 463 kts 124°
2026-05-08 04:31 43.21287 29.61879 37041 ft 462 kts 124°
2026-05-08 04:31 43.19502 29.65659 37176 ft 463 kts 125°
2026-05-08 04:31 43.17706 29.69448 37355 ft 462 kts 125°
2026-05-08 04:31 43.15899 29.73251 37462 ft 462 kts 125°
2026-05-08 04:32 43.14158 29.76907 37590 ft 462 kts 125°
2026-05-08 04:32 43.12345 29.80708 37721 ft 462 kts 125°
2026-05-08 04:32 43.10545 29.84477 37826 ft 462 kts 125°
2026-05-08 04:32 43.08753 29.88225 37945 ft 462 kts 125°
2026-05-08 04:33 43.06978 29.91931 38047 ft 462 kts 125°
2026-05-08 04:33 43.05119 29.95808 38124 ft 462 kts 125°
2026-05-08 04:33 43.03279 29.99642 38239 ft 462 kts 125°
2026-05-08 04:33 43.01454 30.03439 38337 ft 462 kts 126°
2026-05-08 04:34 42.99609 30.07274 38459 ft 461 kts 126°
2026-05-08 04:34 42.97727 30.11180 38572 ft 460 kts 126°
2026-05-08 04:34 42.94146 30.18597 38809 ft 457 kts 127°
2026-05-08 04:35 42.90512 30.26103 39026 ft 454 kts 127°
2026-05-08 04:35 42.87015 30.33307 39139 ft 451 kts 127°
2026-05-08 04:36 42.83366 30.40803 39149 ft 451 kts 127°
2026-05-08 04:36 42.79717 30.48284 39157 ft 451 kts 127°
2026-05-08 04:37 42.76233 30.55426 39159 ft 452 kts 126°
2026-05-08 04:37 42.73696 30.63532 39171 ft 461 kts 105°
2026-05-08 04:38 42.72761 30.72541 39154 ft 464 kts 101°
2026-05-08 04:38 42.71888 30.81478 39156 ft 464 kts 101°
2026-05-08 04:39 42.70952 30.90709 39155 ft 464 kts 101°
2026-05-08 04:39 42.70024 30.99716 39155 ft 465 kts 101°
2026-05-08 04:40 42.69092 31.08677 39157 ft 467 kts 101°
2026-05-08 04:40 42.68212 31.17506 39155 ft 470 kts 100°
2026-05-08 04:41 42.67319 31.26401 39157 ft 472 kts 101°
2026-05-08 04:41 42.66375 31.35397 39157 ft 472 kts 101°
2026-05-08 04:42 42.65424 31.44291 39158 ft 472 kts 101°
2026-05-08 04:42 42.64470 31.53125 39155 ft 472 kts 101°
2026-05-08 04:43 42.63516 31.61884 39161 ft 472 kts 101°
2026-05-08 04:43 42.62525 31.70922 39156 ft 472 kts 101°
2026-05-08 04:44 42.61493 31.80251 39154 ft 472 kts 101°
2026-05-08 04:44 42.60452 31.89596 39155 ft 471 kts 101°
2026-05-08 04:45 42.59416 31.98832 39156 ft 472 kts 101°
2026-05-08 04:45 42.58402 32.07943 39155 ft 472 kts 101°
2026-05-08 04:46 42.57382 32.16885 39155 ft 472 kts 101°
2026-05-08 04:46 42.56375 32.25663 39155 ft 472 kts 101°
2026-05-08 04:47 42.55445 32.34476 39157 ft 473 kts 99°
2026-05-08 04:47 42.54575 32.43483 39158 ft 473 kts 101°
2026-05-08 04:48 42.53567 32.52531 39158 ft 472 kts 101°
2026-05-08 04:48 42.52525 32.61488 39161 ft 472 kts 101°
2026-05-08 04:49 42.51454 32.70540 39154 ft 471 kts 102°
2026-05-08 04:49 42.50361 32.79697 39151 ft 471 kts 102°
2026-05-08 04:50 42.49294 32.88554 39154 ft 472 kts 102°
2026-05-08 04:50 42.48206 32.97534 39153 ft 472 kts 102°
2026-05-08 04:51 42.47142 33.06245 39154 ft 473 kts 102°
2026-05-08 04:51 42.46042 33.15200 39152 ft 473 kts 103°
2026-05-08 04:52 42.44953 33.23983 39157 ft 473 kts 103°
2026-05-08 04:52 42.43861 33.32750 39158 ft 473 kts 103°
2026-05-08 04:53 42.42759 33.41525 39164 ft 472 kts 103°
2026-05-08 04:53 42.41647 33.50339 39171 ft 473 kts 103°
2026-05-08 04:54 42.40528 33.59157 39180 ft 473 kts 103°
2026-05-08 04:54 42.39423 33.67805 39179 ft 472 kts 103°
2026-05-08 04:55 42.38354 33.76094 39180 ft 472 kts 103°
2026-05-08 04:56 42.37464 33.82957 39181 ft 472 kts 103°
2026-05-08 04:56 42.36392 33.91151 39179 ft 473 kts 103°
2026-05-08 04:57 42.35254 33.99842 39182 ft 472 kts 103°
2026-05-08 04:57 42.34069 34.08507 39184 ft 470 kts 107°
2026-05-08 04:58 42.32612 34.17103 39182 ft 472 kts 105°
2026-05-08 04:58 42.31344 34.25741 39180 ft 473 kts 104°
2026-05-08 04:59 42.30141 34.34479 39184 ft 473 kts 103°
2026-05-08 04:59 42.28992 34.42950 39183 ft 473 kts 103°
2026-05-08 05:00 42.27896 34.51515 39184 ft 472 kts 103°
2026-05-08 05:00 42.26744 34.60230 39187 ft 474 kts 103°
2026-05-08 05:01 42.25560 34.68956 39177 ft 472 kts 104°
2026-05-08 05:01 42.24356 34.77616 39181 ft 473 kts 104°
2026-05-08 05:02 42.23405 34.86401 39181 ft 474 kts 102°
2026-05-08 05:02 42.22333 34.95104 39179 ft 474 kts 103°
2026-05-08 05:03 42.21149 35.03847 39180 ft 475 kts 104°
2026-05-08 05:03 42.19862 35.13057 39180 ft 474 kts 104°
2026-05-08 05:04 42.18606 35.21917 39183 ft 474 kts 104°
2026-05-08 05:04 42.17365 35.30605 39183 ft 475 kts 104°
2026-05-08 05:05 42.16108 35.39350 39183 ft 475 kts 104°
2026-05-08 05:05 42.14858 35.48016 39182 ft 474 kts 104°
2026-05-08 05:06 42.13589 35.56771 39183 ft 475 kts 104°
2026-05-08 05:06 42.12322 35.65463 39184 ft 474 kts 104°
2026-05-08 05:07 42.11053 35.74117 39177 ft 474 kts 105°
2026-05-08 05:07 42.09768 35.82838 39177 ft 474 kts 104°
2026-05-08 05:08 42.08481 35.91519 39179 ft 475 kts 104°
2026-05-08 05:08 42.07191 36.00179 39179 ft 473 kts 104°
2026-05-08 05:09 42.05892 36.08841 39180 ft 474 kts 104°
2026-05-08 05:09 42.04579 36.17504 39183 ft 474 kts 106°
2026-05-08 05:10 42.02173 36.30371 39184 ft 474 kts 106°
2026-05-08 05:11 42.00770 36.39027 39183 ft 473 kts 105°
2026-05-08 05:11 41.99351 36.48110 39182 ft 475 kts 105°
2026-05-08 05:12 41.97928 36.57290 39183 ft 474 kts 105°
2026-05-08 05:12 41.96502 36.66459 39183 ft 475 kts 105°
2026-05-08 05:13 41.95095 36.75470 39177 ft 473 kts 105°
2026-05-08 05:13 41.93715 36.84258 39177 ft 474 kts 105°
2026-05-08 05:14 41.92322 36.93083 39180 ft 474 kts 105°
2026-05-08 05:14 41.90924 37.01924 39179 ft 474 kts 104°
2026-05-08 05:15 41.90413 37.11333 39180 ft 482 kts 94°
2026-05-08 05:15 41.90320 37.20411 39179 ft 484 kts 94°
2026-05-08 05:16 41.90220 37.29674 39178 ft 484 kts 94°
2026-05-08 05:16 41.90088 37.38651 39181 ft 484 kts 94°
2026-05-08 05:17 41.89940 37.47716 39186 ft 484 kts 94°
2026-05-08 05:17 41.89784 37.56762 39192 ft 485 kts 94°
2026-05-08 05:18 41.89618 37.65821 39190 ft 485 kts 95°
2026-05-08 05:18 41.89444 37.74972 39212 ft 483 kts 95°
2026-05-08 05:19 41.89264 37.84082 39213 ft 484 kts 95°
2026-05-08 05:19 41.89075 37.93269 39213 ft 483 kts 95°
2026-05-08 05:20 41.88874 38.02673 39211 ft 484 kts 95°
2026-05-08 05:20 41.88664 38.12084 39211 ft 484 kts 95°
2026-05-08 05:21 41.88462 38.21154 39213 ft 483 kts 94°
2026-05-08 05:21 41.88310 38.30238 39218 ft 484 kts 95°
2026-05-08 05:22 41.88109 38.39375 39214 ft 484 kts 95°
2026-05-08 05:22 41.87878 38.48739 39088 ft 486 kts 95°
2026-05-08 05:22 41.87762 38.53247 38509 ft 486 kts 95°
2026-05-08 05:23 41.87640 38.57857 37914 ft 485 kts 95°
2026-05-08 05:23 41.87520 38.62352 37324 ft 485 kts 95°
2026-05-08 05:23 41.87391 38.67117 36675 ft 484 kts 96°
2026-05-08 05:23 41.87260 38.71862 36009 ft 482 kts 96°
2026-05-08 05:24 41.87139 38.76241 35393 ft 473 kts 96°
2026-05-08 05:24 41.87015 38.80603 34810 ft 473 kts 96°
2026-05-08 05:24 41.86888 38.84980 34212 ft 472 kts 96°
2026-05-08 05:24 41.86754 38.89573 33594 ft 472 kts 96°
2026-05-08 05:25 41.86624 38.93954 33007 ft 473 kts 96°
2026-05-08 05:25 41.86490 38.98399 32422 ft 476 kts 96°
2026-05-08 05:25 41.86352 39.02969 31816 ft 480 kts 96°
2026-05-08 05:25 41.86212 39.07473 31223 ft 481 kts 96°
2026-05-08 05:26 41.86074 39.11947 30631 ft 482 kts 96°
2026-05-08 05:26 41.85929 39.16591 30040 ft 480 kts 96°
2026-05-08 05:26 41.85782 39.21186 29489 ft 476 kts 96°
2026-05-08 05:26 41.85631 39.25870 28897 ft 474 kts 96°
2026-05-08 05:27 41.85481 39.30438 28286 ft 472 kts 96°
2026-05-08 05:27 41.85336 39.34829 27678 ft 470 kts 95°
2026-05-08 05:27 41.85189 39.39222 27198 ft 464 kts 96°
2026-05-08 05:27 41.85046 39.43482 26845 ft 457 kts 96°
2026-05-08 05:28 41.84897 39.47776 26099 ft 459 kts 96°
2026-05-08 05:28 41.84748 39.52117 25956 ft 444 kts 96°
2026-05-08 05:28 41.84604 39.56368 25052 ft 429 kts 96°
2026-05-08 05:28 41.84473 39.60308 24357 ft 412 kts 94°
2026-05-08 05:29 41.84449 39.64189 23862 ft 413 kts 93°
2026-05-08 05:29 41.84407 39.67858 23392 ft 415 kts 95°
2026-05-08 05:29 41.84315 39.71690 22922 ft 421 kts 96°
2026-05-08 05:29 41.84199 39.75569 22419 ft 418 kts 96°
2026-05-08 05:30 41.84069 39.79469 21906 ft 415 kts 96°
2026-05-08 05:30 41.83933 39.83308 21397 ft 413 kts 96°
2026-05-08 05:30 41.83794 39.87096 20887 ft 410 kts 96°
2026-05-08 05:30 41.83651 39.90929 20356 ft 396 kts 96°
2026-05-08 05:31 41.83514 39.94566 19924 ft 383 kts 96°
2026-05-08 05:31 41.83373 39.98176 19470 ft 388 kts 96°
2026-05-08 05:31 41.83231 40.01774 19072 ft 384 kts 96°
2026-05-08 05:31 41.83090 40.05331 18669 ft 380 kts 96°
2026-05-08 05:32 41.82949 40.08861 18257 ft 376 kts 96°
2026-05-08 05:32 41.82805 40.12419 17778 ft 374 kts 96°
2026-05-08 05:32 41.82663 40.15894 17386 ft 370 kts 96°
2026-05-08 05:32 41.82521 40.19323 16909 ft 368 kts 96°
2026-05-08 05:33 41.82378 40.22747 16441 ft 367 kts 95°
2026-05-08 05:33 41.82236 40.26150 15976 ft 365 kts 95°
2026-05-08 05:33 41.82093 40.29538 15515 ft 363 kts 95°
2026-05-08 05:33 41.81950 40.32911 15055 ft 361 kts 95°
2026-05-08 05:34 41.81808 40.36242 14601 ft 359 kts 95°
2026-05-08 05:34 41.81662 40.39620 14141 ft 356 kts 95°
2026-05-08 05:34 41.81518 40.42955 13687 ft 354 kts 95°
2026-05-08 05:34 41.81373 40.46280 13235 ft 352 kts 95°
2026-05-08 05:35 41.81223 40.49680 12764 ft 345 kts 95°
2026-05-08 05:35 41.81055 40.52855 12388 ft 336 kts 98°
2026-05-08 05:35 41.80733 40.55950 11984 ft 334 kts 99°
2026-05-08 05:35 41.80454 40.59139 11609 ft 331 kts 97°
2026-05-08 05:36 41.80241 40.62342 11196 ft 328 kts 95°
2026-05-08 05:36 41.80064 40.65542 10706 ft 329 kts 95°
2026-05-08 05:36 41.80002 40.68716 10395 ft 323 kts 92°
2026-05-08 05:36 41.79973 40.71752 10384 ft 308 kts 92°
2026-05-08 05:37 41.79942 40.74654 10371 ft 292 kts 92°
2026-05-08 05:37 41.79915 40.77363 10077 ft 280 kts 92°
2026-05-08 05:37 41.79886 40.80021 9585 ft 276 kts 92°
2026-05-08 05:37 41.79859 40.82608 9055 ft 274 kts 92°
2026-05-08 05:38 41.79832 40.85168 8747 ft 274 kts 92°
2026-05-08 05:38 41.79804 40.87706 8434 ft 274 kts 92°
2026-05-08 05:38 41.79776 40.90252 8121 ft 273 kts 92°
2026-05-08 05:38 41.79748 40.92803 7809 ft 273 kts 92°
2026-05-08 05:39 41.79720 40.95320 7499 ft 272 kts 92°
2026-05-08 05:39 41.79690 40.97874 7188 ft 272 kts 92°
2026-05-08 05:39 41.79660 41.00408 6882 ft 271 kts 92°
2026-05-08 05:39 41.79630 41.02919 6581 ft 270 kts 92°
2026-05-08 05:40 41.79599 41.05445 6277 ft 269 kts 92°
2026-05-08 05:40 41.79568 41.07958 5978 ft 268 kts 92°
2026-05-08 05:40 41.79536 41.10472 5677 ft 267 kts 92°